BBG696 LGRP-LGIR

Flight info

Callsign BBG696
Flight time 0h 33m
Altitude 24000
Route LOKNA N136 RUPUM UN136 LABUX
Aircraft B738/M-SDE2E3FGHIRWXY/LB1

Departure

Time 2026-05-01 14:25
Airport Rhodes International Airport "Diagoras" (LGRP)

Arrival

Time 2026-05-01 14:58
Airport Heraklion International Nikos Kazantzakis Airport (LGIR)
Time Latitude Longitude Altitude Speed Heading
2026-05-01 14:02 36.40403 28.09230 28 ft 0 kts 161°
2026-05-01 14:17 36.40416 28.09224 28 ft 4 kts 160°
2026-05-01 14:18 36.40438 28.09214 28 ft 4 kts 155°
2026-05-01 14:18 36.40455 28.09197 28 ft 4 kts 99°
2026-05-01 14:18 36.40450 28.09167 28 ft 4 kts 62°
2026-05-01 14:18 36.40442 28.09148 28 ft 3 kts 68°
2026-05-01 14:19 36.40441 28.09144 28 ft 0 kts 69°
2026-05-01 14:21 36.40442 28.09146 28 ft 2 kts 70°
2026-05-01 14:21 36.40459 28.09204 28 ft 13 kts 70°
2026-05-01 14:21 36.40511 28.09343 28 ft 20 kts 53°
2026-05-01 14:22 36.40640 28.09598 26 ft 18 kts 70°
2026-05-01 14:22 36.40683 28.09749 23 ft 20 kts 70°
2026-05-01 14:22 36.40733 28.09915 21 ft 21 kts 69°
2026-05-01 14:22 36.40783 28.10082 19 ft 21 kts 70°
2026-05-01 14:23 36.40830 28.10253 20 ft 21 kts 69°
2026-05-01 14:23 36.40878 28.10405 23 ft 13 kts 59°
2026-05-01 14:23 36.40955 28.10426 22 ft 13 kts 329°
2026-05-01 14:23 36.41016 28.10342 22 ft 13 kts 310°
2026-05-01 14:24 36.41011 28.10244 23 ft 0 kts 251°
2026-05-01 14:24 36.41009 28.10238 23 ft 4 kts 251°
2026-05-01 14:24 36.40910 28.09899 21 ft 86 kts 250°
2026-05-01 14:25 36.40628 28.08927 191 ft 138 kts 250°
2026-05-01 14:25 36.40279 28.07812 1025 ft 142 kts 249°
2026-05-01 14:25 36.40036 28.06514 1535 ft 171 kts 264°
2026-05-01 14:25 36.39905 28.04928 2158 ft 193 kts 265°
2026-05-01 14:26 36.39761 28.03262 3120 ft 191 kts 266°
2026-05-01 14:26 36.39455 27.99651 4253 ft 243 kts 265°
2026-05-01 14:26 36.39277 27.97472 4918 ft 260 kts 265°
2026-05-01 14:27 36.39097 27.95222 5904 ft 264 kts 265°
2026-05-01 14:27 36.38631 27.93012 6942 ft 268 kts 248°
2026-05-01 14:27 36.37841 27.90908 8029 ft 270 kts 246°
2026-05-01 14:28 36.36193 27.86691 10233 ft 275 kts 246°
2026-05-01 14:28 36.35335 27.84474 10801 ft 299 kts 246°
2026-05-01 14:28 36.34392 27.82018 11037 ft 330 kts 246°
2026-05-01 14:28 36.33377 27.79359 11510 ft 348 kts 246°
2026-05-01 14:29 36.32333 27.76622 12358 ft 353 kts 247°
2026-05-01 14:29 36.31285 27.73870 13378 ft 353 kts 247°
2026-05-01 14:30 36.28109 27.65502 16258 ft 362 kts 247°
2026-05-01 14:30 36.27048 27.62701 17168 ft 365 kts 247°
2026-05-01 14:30 36.25967 27.59848 18043 ft 368 kts 247°
2026-05-01 14:31 36.23768 27.54053 19672 ft 375 kts 247°
2026-05-01 14:31 36.22653 27.51118 20477 ft 378 kts 247°
2026-05-01 14:31 36.21532 27.48170 21248 ft 380 kts 247°
2026-05-01 14:31 36.20401 27.45200 21955 ft 383 kts 248°
2026-05-01 14:32 36.19260 27.42202 22628 ft 386 kts 248°
2026-05-01 14:32 36.18500 27.40209 23072 ft 388 kts 248°
2026-05-01 14:32 36.16951 27.36149 23835 ft 393 kts 248°
2026-05-01 14:32 36.15779 27.33083 23950 ft 398 kts 248°
2026-05-01 14:33 36.14583 27.29951 23973 ft 407 kts 248°
2026-05-01 14:33 36.13366 27.26772 23976 ft 410 kts 248°
2026-05-01 14:33 36.12148 27.23597 23968 ft 407 kts 248°
2026-05-01 14:33 36.10933 27.20437 23974 ft 407 kts 248°
2026-05-01 14:34 36.09718 27.17276 23979 ft 407 kts 248°
2026-05-01 14:34 36.08504 27.14120 23981 ft 407 kts 248°
2026-05-01 14:34 36.07289 27.10963 23983 ft 407 kts 248°
2026-05-01 14:34 36.06073 27.07805 23983 ft 407 kts 248°
2026-05-01 14:35 36.04857 27.04651 23988 ft 407 kts 248°
2026-05-01 14:35 36.03639 27.01494 23993 ft 407 kts 248°
2026-05-01 14:35 36.02421 26.98340 23991 ft 407 kts 248°
2026-05-01 14:35 36.01201 26.95187 23990 ft 407 kts 248°
2026-05-01 14:36 35.99981 26.92033 23992 ft 407 kts 248°
2026-05-01 14:36 35.98759 26.88880 23989 ft 407 kts 248°
2026-05-01 14:36 35.97536 26.85722 23990 ft 408 kts 248°
2026-05-01 14:36 35.96309 26.82564 23992 ft 408 kts 248°
2026-05-01 14:37 35.95082 26.79408 23991 ft 408 kts 248°
2026-05-01 14:37 35.93853 26.76251 23991 ft 408 kts 248°
2026-05-01 14:37 35.92625 26.73096 23996 ft 408 kts 248°
2026-05-01 14:37 35.91396 26.69941 24001 ft 408 kts 248°
2026-05-01 14:38 35.90163 26.66782 24001 ft 409 kts 248°
2026-05-01 14:38 35.88930 26.63624 24001 ft 408 kts 248°
2026-05-01 14:38 35.87698 26.60473 23998 ft 408 kts 248°
2026-05-01 14:38 35.86882 26.58387 23999 ft 408 kts 248°
2026-05-01 14:39 35.85249 26.54219 24000 ft 407 kts 248°
2026-05-01 14:39 35.84017 26.51076 24000 ft 407 kts 248°
2026-05-01 14:39 35.83183 26.48952 24002 ft 407 kts 248°
2026-05-01 14:39 35.81549 26.44792 24008 ft 407 kts 248°
2026-05-01 14:40 35.80717 26.42676 24008 ft 407 kts 248°
2026-05-01 14:40 35.79484 26.39540 24011 ft 406 kts 248°
2026-05-01 14:40 35.78251 26.36409 24007 ft 406 kts 248°
2026-05-01 14:40 35.77016 26.33275 23346 ft 410 kts 248°
2026-05-01 14:41 35.75779 26.30140 22414 ft 402 kts 248°
2026-05-01 14:41 35.74564 26.27069 21435 ft 395 kts 247°
2026-05-01 14:41 35.73372 26.24055 20497 ft 389 kts 247°
2026-05-01 14:41 35.72197 26.21087 19561 ft 383 kts 247°
2026-05-01 14:42 35.71036 26.18156 18625 ft 378 kts 246°
2026-05-01 14:42 35.69891 26.15265 17715 ft 374 kts 246°
2026-05-01 14:42 35.68757 26.12407 16808 ft 370 kts 246°
2026-05-01 14:42 35.67636 26.09582 15902 ft 366 kts 246°
2026-05-01 14:43 35.66525 26.06785 15019 ft 362 kts 246°
2026-05-01 14:43 35.65425 26.04017 14141 ft 359 kts 246°
2026-05-01 14:43 35.64335 26.01278 13272 ft 355 kts 246°
2026-05-01 14:43 35.63254 25.98565 12418 ft 351 kts 246°
2026-05-01 14:44 35.62185 25.95885 11581 ft 347 kts 246°
2026-05-01 14:44 35.60077 25.90599 10392 ft 339 kts 245°
2026-05-01 14:44 35.59044 25.88017 10260 ft 333 kts 245°
2026-05-01 14:45 35.58046 25.85518 10121 ft 319 kts 246°
2026-05-01 14:45 35.56470 25.80775 9978 ft 282 kts 261°
2026-05-01 14:45 35.56559 25.78442 9841 ft 270 kts 281°
2026-05-01 14:46 35.57021 25.76223 9466 ft 268 kts 284°
2026-05-01 14:46 35.58049 25.71794 8546 ft 270 kts 285°
2026-05-01 14:46 35.58567 25.69577 8129 ft 270 kts 285°
2026-05-01 14:47 35.59081 25.67363 7740 ft 268 kts 285°
2026-05-01 14:47 35.59590 25.65159 7352 ft 268 kts 285°
2026-05-01 14:47 35.60090 25.62965 6953 ft 266 kts 285°
2026-05-01 14:48 35.61072 25.58584 6160 ft 265 kts 285°
2026-05-01 14:48 35.61554 25.56400 5786 ft 264 kts 285°
2026-05-01 14:48 35.62485 25.52062 5029 ft 261 kts 285°
2026-05-01 14:49 35.63261 25.47712 4275 ft 261 kts 271°
2026-05-01 14:49 35.61662 25.43778 3789 ft 273 kts 219°
2026-05-01 14:50 35.58662 25.42705 3388 ft 278 kts 178°
2026-05-01 14:50 35.54164 25.43176 3001 ft 277 kts 174°
2026-05-01 14:51 35.52245 25.43400 2980 ft 277 kts 174°
2026-05-01 14:51 35.48429 25.43813 2971 ft 272 kts 175°
2026-05-01 14:52 35.44923 25.44173 2971 ft 232 kts 175°
2026-05-01 14:52 35.43385 25.44329 2967 ft 212 kts 175°
2026-05-01 14:52 35.40565 25.44613 2982 ft 201 kts 175°
2026-05-01 14:53 35.39165 25.44754 2997 ft 203 kts 175°
2026-05-01 14:53 35.37754 25.44895 2997 ft 204 kts 177°
2026-05-01 14:53 35.36403 25.44489 2981 ft 202 kts 217°
2026-05-01 14:53 35.35537 25.43186 2884 ft 197 kts 246°
2026-05-01 14:54 35.34945 25.41682 2754 ft 195 kts 249°
2026-05-01 14:54 35.34380 25.40175 2626 ft 194 kts 249°
2026-05-01 14:54 35.33814 25.38677 2504 ft 193 kts 249°
2026-05-01 14:54 35.33246 25.37181 2408 ft 195 kts 249°
2026-05-01 14:55 35.32783 25.35628 2260 ft 195 kts 270°
2026-05-01 14:55 35.32864 25.34036 2233 ft 185 kts 279°
2026-05-01 14:55 35.32976 25.32479 2135 ft 185 kts 272°
2026-05-01 14:55 35.33089 25.30847 2080 ft 191 kts 278°
2026-05-01 14:56 35.33194 25.29273 2020 ft 178 kts 278°
2026-05-01 14:56 35.33292 25.27841 1824 ft 166 kts 278°
2026-05-01 14:56 35.33391 25.26436 1479 ft 160 kts 278°
2026-05-01 14:56 35.33479 25.25159 1216 ft 143 kts 278°
2026-05-01 14:57 35.33558 25.24009 1031 ft 130 kts 279°
2026-05-01 14:57 35.33725 25.21753 656 ft 133 kts 278°
2026-05-01 14:57 35.33786 25.20641 420 ft 127 kts 277°
2026-05-01 14:58 35.33861 25.19608 231 ft 120 kts 277°
2026-05-01 14:58 35.33937 25.18584 92 ft 119 kts 275°
2026-05-01 14:58 35.33991 25.17797 92 ft 62 kts 275°
2026-05-01 14:58 35.34021 25.17375 90 ft 41 kts 275°
2026-05-01 14:59 35.34024 25.17203 89 ft 15 kts 261°
2026-05-01 14:59 35.33988 25.17090 89 ft 13 kts 246°
2026-05-01 14:59 35.33959 25.17052 89 ft 0 kts 187°
2026-05-01 14:59 35.33951 25.17053 89 ft 3 kts 174°
2026-05-01 15:00 35.33935 25.17136 89 ft 12 kts 93°
2026-05-01 15:00 35.33928 25.17270 90 ft 17 kts 95°
2026-05-01 15:00 35.33917 25.17418 90 ft 18 kts 95°
2026-05-01 15:01 35.33908 25.17566 90 ft 17 kts 95°
2026-05-01 15:01 35.33898 25.17707 91 ft 16 kts 95°
2026-05-01 15:01 35.33888 25.17844 91 ft 16 kts 95°
2026-05-01 15:01 35.33868 25.17950 91 ft 12 kts 125°
2026-05-01 15:02 35.33843 25.17992 91 ft 6 kts 126°
2026-05-01 15:02 35.33835 25.17998 90 ft 2 kts 159°
2026-05-01 15:02 35.33807 25.18001 90 ft 4 kts 189°
2026-05-01 15:02 35.33789 25.17990 90 ft 0 kts 211°